Date String (YYYY-MM-DD hh:mm:ss) UTC,Instrument flags,Ambient pressure (hPa),Sample flow (lpm),Bypass flow (lpm),Sample temperature (°C),Ambient temperature (°C),ASC tube jacket temperature (°C),LED temperature (°C),Box temperature (°C),Sample RH (%),Span deviation,Mass concentration (μg/m³),Mass concentration (μg/m³),Mass concentration (μg/m³)
DateTimeUTC,F1_M11,P_M11,Q1_M11,Q2_M11,T1_M11,T2_M11,T3_M11,T4_M11,T5_M11,U1_M11,ZSPAN_M11,X0_M11,X2_M11,X1_M11
2021-12-07 13:00:00,,0819.5,5.01,0.00,22.0,21.4,00.0,31.0,23.7,10.1,0000.0,0017.76,0005.23,0003.20
2021-12-07 13:01:00,,0819.5,5.00,0.00,22.0,21.4,00.0,31.0,23.7,10.1,0000.0,0017.74,0005.16,0003.17
2021-12-07 13:02:00,,0819.6,5.00,0.00,22.0,21.4,00.0,31.0,23.7,10.0,0000.0,0017.54,0005.17,0003.14
2021-12-07 13:03:00,,0819.6,5.00,0.00,22.0,21.3,00.0,31.0,23.7,10.0,0000.0,0016.97,0005.10,0003.11
2021-12-07 13:04:00,,0819.6,5.01,0.00,22.0,21.3,00.0,31.0,23.7,10.0,0000.0,0016.85,0005.07,0003.10
2021-12-07 13:05:00,,0819.6,4.99,0.00,22.0,21.3,00.0,31.0,23.7,10.1,0000.0,0016.65,0005.05,0003.09
2021-12-07 13:06:00,,0819.6,5.01,0.00,22.0,21.3,00.0,31.0,23.7,10.1,0000.0,0016.51,0005.08,0003.08
2021-12-07 13:07:00,,0819.7,4.99,0.00,22.0,21.3,00.0,31.0,23.7,10.1,0000.0,0016.30,0005.06,0003.07
2021-12-07 13:08:00,,0819.8,5.01,0.00,22.0,21.3,00.0,31.0,23.7,10.1,0000.0,0016.07,0005.00,0003.05
2021-12-07 13:09:00,,0819.8,5.00,0.00,22.0,21.3,00.0,31.0,23.6,10.1,0000.0,0016.13,0004.95,0003.05
2021-12-07 13:10:00,,0819.8,4.98,0.00,21.9,21.3,00.0,31.0,23.6,10.1,0000.0,0015.55,0004.88,0003.03
2021-12-07 13:11:00,,0820.0,5.02,0.00,21.9,21.5,00.0,31.0,23.6,10.0,0000.0,0015.66,0004.82,0003.05
2021-12-07 13:12:00,,0819.9,4.99,0.00,22.0,22.1,00.0,31.0,23.9,10.0,0000.0,0014.60,0004.77,0003.06
2021-12-07 13:13:00,,0820.0,5.00,0.00,22.2,22.8,00.0,31.1,24.1,09.9,0000.0,0014.19,0004.71,0003.06
2021-12-07 13:14:00,,0820.2,5.00,0.00,22.3,22.8,00.0,31.1,24.2,09.8,0000.0,0014.28,0004.68,0003.09
2021-12-07 13:15:00,,0820.2,5.00,0.00,22.3,22.6,00.0,31.1,24.1,09.7,0000.0,0014.25,0004.69,0003.12
2021-12-07 13:16:00,,0820.2,5.02,0.00,22.3,22.4,00.0,31.1,24.0,09.7,0000.0,0014.73,0004.76,0003.13
2021-12-07 13:17:00,,0820.3,4.99,0.00,22.2,22.1,00.0,31.1,24.0,09.7,0000.0,0015.85,0004.82,0003.16
2021-12-07 13:18:00,,0820.4,5.01,0.00,22.2,22.0,00.0,31.1,23.9,09.7,0000.0,0017.02,0004.90,0003.20
2021-12-07 13:19:00,,0820.5,4.99,0.00,22.2,21.9,00.0,31.1,23.9,09.7,0000.0,0017.36,0005.03,0003.24
2021-12-07 13:20:00,,0820.5,5.02,0.00,22.2,21.7,00.0,31.1,23.9,09.7,0000.0,0017.51,0005.11,0003.27
2021-12-07 13:21:00,,0820.5,4.99,0.00,22.2,21.7,00.0,31.1,23.9,09.7,0000.0,0017.53,0005.16,0003.31
2021-12-07 13:22:00,,0820.6,5.01,0.00,22.1,21.6,00.0,31.1,23.9,09.7,0000.0,0016.86,0005.21,0003.32
2021-12-07 13:23:00,,0820.5,4.99,0.00,22.1,21.6,00.0,31.1,23.9,09.7,0000.0,0018.05,0005.35,0003.35
2021-12-07 13:24:00,,0820.5,5.01,0.00,22.1,21.5,00.0,31.1,23.9,09.6,0000.0,0020.18,0005.45,0003.40
2021-12-07 13:25:00,,0820.5,4.99,0.00,22.1,21.5,00.0,31.1,23.9,09.6,0000.0,0021.55,0005.59,0003.44
2021-12-07 13:26:00,,0820.5,5.02,0.00,22.1,21.5,00.0,31.1,23.8,09.6,0000.0,0022.17,0005.64,0003.49
2021-12-07 13:27:00,,0820.4,4.99,0.00,22.1,21.5,00.0,31.1,23.8,09.5,0000.0,0022.03,0005.66,0003.51
2021-12-07 13:28:00,,0820.5,5.00,0.00,22.1,21.4,00.0,31.1,23.8,09.6,0000.0,0022.41,0005.71,0003.52
2021-12-07 13:29:00,,0820.5,5.00,0.00,22.1,21.4,00.0,31.1,23.8,09.6,0000.0,0021.73,0005.75,0003.53
2021-12-07 13:30:00,,0820.6,5.00,0.00,22.1,21.4,00.0,31.1,23.7,09.6,0000.0,0021.82,0005.73,0003.52
2021-12-07 13:31:00,,0820.6,4.99,0.00,22.0,21.4,00.0,31.1,23.7,09.6,0000.0,0022.85,0005.80,0003.54
2021-12-07 13:32:00,,0820.6,5.02,0.00,22.0,21.4,00.0,31.1,23.7,09.6,0000.0,0023.18,0005.84,0003.54
2021-12-07 13:33:00,,0820.6,5.00,0.00,22.1,21.7,00.0,31.1,23.8,09.6,0000.0,0023.11,0005.88,0003.54
2021-12-07 13:34:00,,0820.6,5.00,0.00,22.2,22.4,00.0,31.1,24.1,09.6,0000.0,0023.06,0005.84,0003.52
2021-12-07 13:35:00,,0820.7,4.99,0.00,22.3,23.2,00.0,31.2,24.3,09.6,0000.0,0021.67,0005.78,0003.49
2021-12-07 13:36:00,,0820.7,5.00,0.00,22.4,23.1,00.0,31.2,24.4,09.5,0000.0,0020.48,0005.76,0003.46
2021-12-07 13:37:00,,0820.8,5.00,0.00,22.5,22.9,00.0,31.2,24.4,09.5,0000.0,0019.52,0005.71,0003.42
2021-12-07 13:38:00,,0820.8,5.00,0.00,22.5,22.7,00.0,31.3,24.3,09.5,0000.0,0019.66,0005.69,0003.40
2021-12-07 13:39:00,,0820.9,5.01,0.00,22.5,22.5,00.0,31.3,24.3,09.5,0000.0,0019.07,0005.68,0003.39
2021-12-07 13:40:00,,0820.9,4.99,0.00,22.5,22.3,00.0,31.3,24.2,09.4,0000.0,0018.09,0005.63,0003.39
2021-12-07 13:41:00,,0821.0,4.99,0.00,22.5,22.2,00.0,31.3,24.2,09.4,0000.0,0019.16,0005.61,0003.38
2021-12-07 13:42:00,,0820.9,5.01,0.00,22.4,22.1,00.0,31.3,24.2,09.4,0000.0,0020.78,0005.55,0003.37
2021-12-07 13:43:00,,0820.9,4.99,0.00,22.4,22.0,00.0,31.3,24.1,09.4,0000.0,0021.85,0005.52,0003.35
2021-12-07 13:44:00,,0821.0,5.00,0.00,22.4,21.9,00.0,31.3,24.1,09.4,0000.0,0021.91,0005.53,0003.36
2021-12-07 13:45:00,,0821.0,4.99,0.00,22.4,21.9,00.0,31.3,24.1,09.5,0000.0,0020.78,0005.55,0003.35
2021-12-07 13:46:00,,0821.0,5.00,0.00,22.4,21.8,00.0,31.3,24.1,09.5,0000.0,0020.40,0005.56,0003.34
2021-12-07 13:47:00,,0821.0,4.99,0.00,22.4,21.8,00.0,31.3,24.1,09.6,0000.0,0020.54,0005.50,0003.34
2021-12-07 13:48:00,,0821.0,5.00,0.00,22.3,21.7,00.0,31.3,24.1,09.6,0000.0,0021.44,0005.46,0003.33
2021-12-07 13:49:00,,0821.0,5.00,0.00,22.3,21.7,00.0,31.3,24.1,09.5,0000.0,0021.44,0005.42,0003.33
2021-12-07 13:50:00,,0821.1,5.01,0.00,22.3,21.7,00.0,31.3,24.0,09.5,0000.0,0021.90,0005.46,0003.33
2021-12-07 13:51:00,,0821.2,5.00,0.00,22.3,21.6,00.0,31.3,24.0,09.6,0000.0,0023.33,0005.53,0003.33
2021-12-07 13:52:00,,0821.3,4.99,0.00,22.3,21.6,00.0,31.3,23.9,09.6,0000.0,0022.89,0005.57,0003.33
2021-12-07 13:53:00,,0821.3,5.00,0.00,22.3,21.6,00.0,31.3,23.9,09.6,0000.0,0020.40,0005.58,0003.34
2021-12-07 13:54:00,,0821.3,5.00,0.00,22.2,21.5,00.0,31.3,23.9,09.6,0000.0,0020.67,0005.56,0003.34
2021-12-07 13:55:00,,0821.2,5.01,0.00,22.2,21.5,00.0,31.3,23.9,09.6,0000.0,0020.72,0005.55,0003.34
2021-12-07 13:56:00,,0821.2,5.01,0.00,22.2,21.5,00.0,31.3,23.9,09.6,0001.1,0021.78,0005.60,0003.36
2021-12-07 13:57:00,,0821.1,4.99,0.00,22.2,21.5,00.0,31.3,23.8,09.6,0003.6,0022.21,0005.67,0003.37
2021-12-07 13:58:00,,0821.1,5.01,0.00,22.2,21.5,00.0,31.2,23.8,09.7,0004.4,0022.86,0005.77,0003.37
2021-12-07 13:59:00,,0821.1,5.00,0.00,22.2,21.4,00.0,31.2,23.8,09.7,0004.7,0022.49,0005.85,0003.36
